Regional Weather Roundup
Issued by NWS

Home | Current Version | Previous Version | Text Only | Print | Product List | Glossary On
Versions: 1 2 3 4 5 6 7 8 9 10 11 12 13 14 15 16 17 18 19 20 21 22 23 24 25 26 27 28 29 30 31 32 33 34 35 36 37 38 39 40 41 42 43 44 45 46 47 48 49 50
000
ASUS43 KBIS 260210
RWRND

NORTH DAKOTA REGIONAL WEATHER ROUNDUP
NATIONAL WEATHER SERVICE BISMARCK ND
900 PM CDT SAT APR 25 2015

NOTE: "FAIR" INDICATES FEW OR NO CLOUDS BELOW 12,000 FEET WITH NO
SIGNIFICANT WEATHER AND/OR OBSTRUCTIONS TO VISIBILITY.


NDZ001>003-009>011-017-260300-
NORTHWEST NORTH DAKOTA

CITY           SKY/WX    TMP DP  RH WIND       PRES   REMARKS
WILLISTON      LGT RAIN  47  45  93 W8        29.81R
MINOT          CLOUDY    52  41  66 SE13      29.86R
MINOT AFB      CLOUDY    52  46  81 SE10      29.85R
$$

NDZ018>021-031>035-040>046-260300-
SOUTHWEST NORTH DAKOTA

CITY           SKY/WX    TMP DP  RH WIND       PRES   REMARKS
BISMARCK       CLOUDY    48  43  82 E6        29.89R
DICKINSON      CLOUDY    47  44  90 SE10      29.82R FOG
GARRISON         N/A     48  41  76 SE12      29.86R
HETTINGER ARPT CLOUDY    48  45  89 SE7       29.85R
$$

NDZ004>008-012>016-024-026-027-054-260300-
NORTHEAST NORTH DAKOTA

CITY           SKY/WX    TMP DP  RH WIND       PRES   REMARKS
GRAND FORKS    MOCLDY    58  38  47 SE5       29.93R
GRND FRKS AFB  CLEAR     50  38  62 S1        29.93R
DEVILS LAKE    MOCLDY    50  39  66 SE9       29.92R
$$

NDZ022-023-025-028>030-036>039-047>053-260300-
SOUTHEAST NORTH DAKOTA

CITY           SKY/WX    TMP DP  RH WIND       PRES   REMARKS
FARGO          CLEAR     56  35  45 E5        29.93R
JAMESTOWN      CLOUDY    50  40  68 SE8       29.91R
$$



USA.gov is the U.S. government's official web portal to all federal, state and local government web resources and services.